INTELSAT 10-02

Last updated on Sept. 20, 2020, 5:45 a.m. UTC

1 28358U 04022A   20263.86195507 -.00000026  00000-0  00000-0 0  9997
2 28358   0.0102 190.3296 0002968 351.6348 126.5776  1.00271667 59587
UTC
Height (km)
Latitude
Longitude
Inclination
Orbital Period
UTC large
Height (km)
Speed (km/s)
/
Latitude / Longitude
Inclination (degrees)
Orbital Period (minutes)
Azimuth
Elevation
Range (km)
Doppler Factor
iOS Compass Heading
iOS Angle

Next 30 passes for location: Hong Kong

Rise time Rise Azimuth (degrees) Set time Set Azimuth (degrees) Duration Max altitude (degrees)

No matching passes for this satellites